Time,TemperatureF,DewpointF,PressureIn,WindDirection,WindDirectionDegrees,WindSpeedMPH,WindSpeedGustMPH,Humidity,HourlyPrecipIn,Conditions,Clouds,dailyrainin,SoftwareType,DateUTC
2013-06-12 00:12:00,73.6,73.0,29.90,South,180,0.0,-999.0,98,-99.99,,,0.00,Acu-Link.com,2013-06-12 04:12:00,
2013-06-12 00:27:00,73.4,72.2,29.91,SW,225,0.0,-999.0,96,-99.99,,,0.00,Acu-Link.com,2013-06-12 04:27:00,
2013-06-12 00:42:00,73.4,71.6,29.91,SW,225,0.0,-999.0,94,-99.99,,,0.00,Acu-Link.com,2013-06-12 04:42:00,
2013-06-12 00:58:00,73.6,72.1,29.91,SW,225,0.0,-999.0,95,-99.99,,,0.00,Acu-Link.com,2013-06-12 04:58:00,
2013-06-12 01:13:00,73.4,72.5,29.90,SW,225,0.0,-999.0,97,-99.99,,,0.00,Acu-Link.com,2013-06-12 05:13:00,
2013-06-12 01:28:00,73.0,72.1,29.90,SW,225,0.0,-999.0,97,-99.99,,,0.00,Acu-Link.com,2013-06-12 05:28:00,
2013-06-12 01:44:00,72.9,72.0,29.89,SW,225,0.0,-999.0,97,-99.99,,,0.00,Acu-Link.com,2013-06-12 05:44:00,
2013-06-12 01:59:00,73.6,73.0,29.90,SW,225,0.0,-999.0,98,-99.99,,,0.00,Acu-Link.com,2013-06-12 05:59:00,
2013-06-12 02:14:00,73.4,72.8,29.90,NNW,337,1.1,-999.0,98,-99.99,,,0.00,Acu-Link.com,2013-06-12 06:14:00,
2013-06-12 02:30:00,73.6,73.0,29.89,NNW,337,0.0,-999.0,98,-99.99,,,0.00,Acu-Link.com,2013-06-12 06:30:00,
2013-06-12 02:45:00,73.0,72.4,29.88,NNW,337,0.0,-999.0,98,-99.99,,,0.00,Acu-Link.com,2013-06-12 06:45:00,
2013-06-12 03:00:00,72.7,72.1,29.88,NNW,337,0.0,-999.0,98,-99.99,,,0.00,Acu-Link.com,2013-06-12 07:00:00,
2013-06-12 03:16:00,72.5,71.9,29.88,NNW,337,0.0,-999.0,98,-99.99,,,0.00,Acu-Link.com,2013-06-12 07:16:00,
2013-06-12 03:31:00,72.3,71.7,29.88,NNW,337,0.0,-999.0,98,-99.99,,,0.00,Acu-Link.com,2013-06-12 07:31:00,
2013-06-12 03:46:00,72.0,71.4,29.87,NNW,337,0.0,-999.0,98,-99.99,,,0.00,Acu-Link.com,2013-06-12 07:46:00,
2013-06-12 04:01:00,71.8,71.2,29.88,NNW,337,0.0,-999.0,98,-99.99,,,0.00,Acu-Link.com,2013-06-12 08:01:00,
2013-06-12 04:17:00,71.8,71.2,29.88,NNW,337,0.0,-999.0,98,-99.99,,,0.00,Acu-Link.com,2013-06-12 08:17:00,
2013-06-12 04:33:00,71.8,71.2,29.88,NNW,337,0.0,-999.0,98,-99.99,,,0.00,Acu-Link.com,2013-06-12 08:33:00,
2013-06-12 04:48:00,72.3,71.7,29.88,NNW,337,0.0,-999.0,98,-99.99,,,0.00,Acu-Link.com,2013-06-12 08:48:00,
2013-06-12 05:03:00,72.3,71.7,29.88,SW,225,0.0,-999.0,98,-99.99,,,0.00,Acu-Link.com,2013-06-12 09:03:00,
2013-06-12 05:18:00,71.6,71.0,29.89,WSW,247,0.0,-999.0,98,-99.99,,,0.00,Acu-Link.com,2013-06-12 09:18:00,
2013-06-12 05:33:00,71.6,71.0,29.89,SW,225,0.0,-999.0,98,-99.99,,,0.00,Acu-Link.com,2013-06-12 09:33:00,
2013-06-12 05:49:00,72.1,71.5,29.90,WSW,247,0.0,-999.0,98,-99.99,,,0.00,Acu-Link.com,2013-06-12 09:49:00,
2013-06-12 06:04:00,72.3,71.7,29.90,SW,225,0.0,-999.0,98,-99.99,,,0.00,Acu-Link.com,2013-06-12 10:04:00,
2013-06-12 06:19:00,72.3,71.7,29.90,SW,225,0.0,-999.0,98,-99.99,,,0.00,Acu-Link.com,2013-06-12 10:19:00,
2013-06-12 06:35:00,72.3,71.7,29.90,SW,225,0.0,-999.0,98,-99.99,,,0.00,Acu-Link.com,2013-06-12 10:35:00,
2013-06-12 06:50:00,73.6,73.0,29.91,NNW,337,0.0,-999.0,98,-99.99,,,0.00,Acu-Link.com,2013-06-12 10:50:00,
2013-06-12 07:05:00,75.6,75.0,29.91,NNW,337,0.0,-999.0,98,-99.99,,,0.00,Acu-Link.com,2013-06-12 11:05:00,
2013-06-12 07:20:00,77.4,75.9,29.90,NNW,337,0.0,-999.0,95,-99.99,,,0.00,Acu-Link.com,2013-06-12 11:20:00,
2013-06-12 07:35:00,79.2,73.9,29.91,North,0,0.0,-999.0,84,-99.99,,,0.00,Acu-Link.com,2013-06-12 11:35:00,
2013-06-12 07:51:00,81.5,73.6,29.91,NNW,337,0.0,-999.0,77,-99.99,,,0.00,Acu-Link.com,2013-06-12 11:51:00,
2013-06-12 08:06:00,83.8,72.5,29.91,NNE,22,0.0,-999.0,69,-99.99,,,0.00,Acu-Link.com,2013-06-12 12:06:00,
2013-06-12 08:21:00,83.1,71.4,29.92,North,0,0.0,-999.0,68,-99.99,,,0.00,Acu-Link.com,2013-06-12 12:21:00,
2013-06-12 08:37:00,84.9,73.1,29.93,NNE,22,1.1,-999.0,68,-99.99,,,0.00,Acu-Link.com,2013-06-12 12:37:00,
2013-06-12 08:52:00,86.7,73.0,29.92,NNE,22,0.0,-999.0,64,-99.99,,,0.00,Acu-Link.com,2013-06-12 12:52:00,
2013-06-12 09:07:00,88.9,74.2,29.92,NNE,22,0.0,-999.0,62,-99.99,,,0.00,Acu-Link.com,2013-06-12 13:07:00,
2013-06-12 09:23:00,89.6,73.8,29.91,NNW,337,0.0,-999.0,60,-99.99,,,0.00,Acu-Link.com,2013-06-12 13:23:00,
2013-06-12 09:38:00,92.8,74.8,29.91,NNE,22,0.0,-999.0,56,-99.99,,,0.00,Acu-Link.com,2013-06-12 13:38:00,
2013-06-12 09:53:00,91.2,72.7,29.92,North,0,0.0,-999.0,55,-99.99,,,0.00,Acu-Link.com,2013-06-12 13:53:00,
2013-06-12 10:08:00,89.2,70.9,29.91,NW,315,0.0,-999.0,55,-99.99,,,0.00,Acu-Link.com,2013-06-12 14:08:00,
2013-06-12 10:24:00,90.1,72.3,29.92,NNW,337,0.0,-999.0,56,-99.99,,,0.00,Acu-Link.com,2013-06-12 14:24:00,
2013-06-12 10:39:00,92.8,74.2,29.92,NNE,22,0.0,-999.0,55,-99.99,,,0.00,Acu-Link.com,2013-06-12 14:39:00,
2013-06-12 10:54:00,94.1,73.7,29.92,NE,45,1.1,-999.0,52,-99.99,,,0.00,Acu-Link.com,2013-06-12 14:54:00,
2013-06-12 11:10:00,87.6,70.5,29.92,NNE,22,0.0,-999.0,57,-99.99,,,0.00,Acu-Link.com,2013-06-12 15:10:00,
2013-06-12 11:25:00,88.7,72.0,29.91,NE,45,1.1,-999.0,58,-99.99,,,0.00,Acu-Link.com,2013-06-12 15:25:00,
2013-06-12 11:40:00,90.5,72.6,29.92,NNE,22,1.1,-999.0,56,-99.99,,,0.00,Acu-Link.com,2013-06-12 15:40:00,
2013-06-12 11:56:00,91.9,73.4,29.91,East,90,0.0,-999.0,55,-99.99,,,0.00,Acu-Link.com,2013-06-12 15:56:00,
2013-06-12 12:11:00,92.1,73.0,29.91,North,0,0.0,-999.0,54,-99.99,,,0.00,Acu-Link.com,2013-06-12 16:11:00,
2013-06-12 12:26:00,93.7,74.5,29.90,East,90,1.1,-999.0,54,-99.99,,,0.00,Acu-Link.com,2013-06-12 16:26:00,
2013-06-12 12:41:00,92.7,73.0,29.91,East,90,1.7,-999.0,53,-99.99,,,0.00,Acu-Link.com,2013-06-12 16:41:00,
2013-06-12 12:57:00,92.8,72.0,29.90,West,270,0.0,-999.0,51,-99.99,,,0.00,Acu-Link.com,2013-06-12 16:57:00,
2013-06-12 13:12:00,93.7,72.8,29.90,North,0,0.0,-999.0,51,-99.99,,,0.00,Acu-Link.com,2013-06-12 17:12:00,
2013-06-12 13:27:00,95.4,73.2,29.89,East,90,0.0,-999.0,49,-99.99,,,0.00,Acu-Link.com,2013-06-12 17:27:00,
2013-06-12 13:43:00,94.6,73.0,29.89,North,0,0.0,-999.0,50,-99.99,,,0.00,Acu-Link.com,2013-06-12 17:43:00,
2013-06-12 13:58:00,94.3,72.8,29.88,NNE,22,1.1,-999.0,50,-99.99,,,0.00,Acu-Link.com,2013-06-12 17:58:00,
2013-06-12 14:14:00,96.1,72.6,29.88,East,90,0.0,-999.0,47,-99.99,,,0.00,Acu-Link.com,2013-06-12 18:14:00,
2013-06-12 14:29:00,93.2,71.7,29.87,North,0,0.0,-999.0,50,-99.99,,,0.00,Acu-Link.com,2013-06-12 18:29:00,
2013-06-12 14:44:00,94.8,73.2,29.86,NNE,22,1.1,-999.0,50,-99.99,,,0.00,Acu-Link.com,2013-06-12 18:44:00,
2013-06-12 14:59:00,94.6,73.6,29.85,NE,45,1.1,-999.0,51,-99.99,,,0.00,Acu-Link.com,2013-06-12 18:59:00,
2013-06-12 15:15:00,94.1,73.2,29.85,SSW,202,0.0,-999.0,51,-99.99,,,0.00,Acu-Link.com,2013-06-12 19:15:00,
2013-06-12 15:30:00,94.3,72.8,29.85,WNW,292,1.1,-999.0,50,-99.99,,,0.00,Acu-Link.com,2013-06-12 19:30:00,
2013-06-12 15:46:00,95.9,73.0,29.85,East,90,1.7,-999.0,48,-99.99,,,0.00,Acu-Link.com,2013-06-12 19:46:00,
2013-06-12 16:01:00,93.9,72.4,29.86,NNE,22,0.0,-999.0,50,-99.99,,,0.00,Acu-Link.com,2013-06-12 20:01:00,
2013-06-12 16:16:00,94.5,72.3,29.84,NE,45,0.0,-999.0,49,-99.99,,,0.00,Acu-Link.com,2013-06-12 20:16:00,
2013-06-12 16:32:00,95.0,72.8,29.85,SW,225,0.0,-999.0,49,-99.99,,,0.00,Acu-Link.com,2013-06-12 20:32:00,
2013-06-12 16:47:00,95.0,72.8,29.83,ESE,112,0.0,-999.0,49,-99.99,,,0.00,Acu-Link.com,2013-06-12 20:47:00,
2013-06-12 17:02:00,95.9,73.0,29.85,West,270,0.0,-999.0,48,-99.99,,,0.00,Acu-Link.com,2013-06-12 21:02:00,
2013-06-12 17:18:00,95.4,73.8,29.83,ESE,112,1.7,-999.0,50,-99.99,,,0.00,Acu-Link.com,2013-06-12 21:18:00,
2013-06-12 17:33:00,93.0,71.6,29.83,ESE,112,0.0,-999.0,50,-99.99,,,0.00,Acu-Link.com,2013-06-12 21:33:00,
2013-06-12 17:49:00,91.6,71.4,29.83,South,180,0.0,-999.0,52,-99.99,,,0.00,Acu-Link.com,2013-06-12 21:49:00,
2013-06-12 18:04:00,91.2,71.6,29.83,ESE,112,0.0,-999.0,53,-99.99,,,0.00,Acu-Link.com,2013-06-12 22:04:00,
2013-06-12 18:19:00,90.3,71.4,29.83,SE,135,1.7,-999.0,54,-99.99,,,0.00,Acu-Link.com,2013-06-12 22:19:00,
2013-06-12 18:35:00,89.8,72.0,29.84,WSW,247,0.0,-999.0,56,-99.99,,,0.00,Acu-Link.com,2013-06-12 22:35:00,
2013-06-12 18:50:00,86.9,71.8,29.86,West,270,0.0,-999.0,61,-99.99,,,0.05,Acu-Link.com,2013-06-12 22:50:00,
2013-06-12 19:05:00,76.6,66.5,29.87,SSW,202,0.0,-999.0,71,-99.99,,,0.33,Acu-Link.com,2013-06-12 23:05:00,
2013-06-12 19:20:00,69.8,67.4,29.87,SSE,157,3.7,-999.0,92,-99.99,,,0.74,Acu-Link.com,2013-06-12 23:20:00,
2013-06-12 19:35:00,71.2,70.6,29.85,SW,225,0.0,-999.0,98,-99.99,,,1.33,Acu-Link.com,2013-06-12 23:35:00,
2013-06-12 19:51:00,71.6,71.0,29.85,NNE,22,1.7,-999.0,98,-99.99,,,1.56,Acu-Link.com,2013-06-12 23:51:00,
2013-06-12 20:06:00,73.6,73.0,29.86,SE,135,0.0,-999.0,98,-99.99,,,1.57,Acu-Link.com,2013-06-13 00:06:00,
2013-06-12 20:21:00,74.5,73.9,29.87,SW,225,0.0,-999.0,98,-99.99,,,1.57,Acu-Link.com,2013-06-13 00:21:00,
2013-06-12 20:37:00,74.7,74.1,29.87,SE,135,0.0,-999.0,98,-99.99,,,1.57,Acu-Link.com,2013-06-13 00:37:00,
2013-06-12 20:52:00,74.7,74.1,29.86,West,270,0.0,-999.0,98,-99.99,,,1.57,Acu-Link.com,2013-06-13 00:52:00,
2013-06-12 21:07:00,74.5,73.9,29.86,SSW,202,0.0,-999.0,98,-99.99,,,1.57,Acu-Link.com,2013-06-13 01:07:00,
2013-06-12 21:23:00,74.3,73.7,29.87,SSW,202,0.0,-999.0,98,-99.99,,,1.57,Acu-Link.com,2013-06-13 01:23:00,
2013-06-12 21:38:00,74.3,73.7,29.86,SSW,202,0.0,-999.0,98,-99.99,,,1.57,Acu-Link.com,2013-06-13 01:38:00,
2013-06-12 21:53:00,74.1,73.5,29.86,SW,225,0.0,-999.0,98,-99.99,,,1.57,Acu-Link.com,2013-06-13 01:53:00,
2013-06-12 22:09:00,73.9,73.3,29.86,WSW,247,0.0,-999.0,98,-99.99,,,1.57,Acu-Link.com,2013-06-13 02:09:00,
2013-06-12 22:24:00,73.6,73.0,29.87,SW,225,0.0,-999.0,98,-99.99,,,1.57,Acu-Link.com,2013-06-13 02:24:00,
2013-06-12 22:39:00,73.6,73.0,29.87,ESE,112,0.0,-999.0,98,-99.99,,,1.57,Acu-Link.com,2013-06-13 02:39:00,
2013-06-12 22:54:00,73.6,73.0,29.88,West,270,0.0,-999.0,98,-99.99,,,1.57,Acu-Link.com,2013-06-13 02:54:00,
2013-06-12 23:10:00,73.6,73.0,29.88,South,180,0.0,-999.0,98,-99.99,,,1.57,Acu-Link.com,2013-06-13 03:10:00,
2013-06-12 23:25:00,73.6,73.0,29.87,South,180,0.0,-999.0,98,-99.99,,,1.57,Acu-Link.com,2013-06-13 03:25:00,
2013-06-12 23:40:00,73.4,72.8,29.87,South,180,0.0,-999.0,98,-99.99,,,1.57,Acu-Link.com,2013-06-13 03:40:00,
2013-06-12 23:56:00,73.2,72.6,29.88,South,180,0.0,-999.0,98,-99.99,,,1.57,Acu-Link.com,2013-06-13 03:56:00,